星链-5193 (STARLINK-5193 )

导读 | 豆包AI

STARLINK-5193是美国太空探索技术公司(SpaceX)星链互联网卫星星座的一员,于2022年10月20日发射入轨。星链计划旨在搭建全球卫星互联网,为全球提供宽带互联网接入服务,该卫星主要承担低轨道网络通信节点任务,助力覆盖偏远地区网络盲区,提升全球网络连通性。

基本信息
目录编号:
54095
目录名称:
STARLINK-5193
国际标识:
2022-136AW
轨道中心:
EARTH
卫星名称:
星链-5193
卫星全名:
星链-5193 (STARLINK-5193 )
卫星状态:
在轨 (已飞行1242 天)
发射日期:
2022-10-20 UTC
国别 :
美国 (US)
星等 :
--
轨道信息
数据来源 国际轨道数据
星历时间: 2026-03-15T05:20:26+0800
12小时前
查看轨道信息
半长轴: 6917.909km
偏心率: 0.0001254
轨道倾角: 53.217°
近地点辐角 90.223°
升交点赤经 310.451°
平近点角 269.890°
近地点: 538.904km
远地点: 540.64km
周期: 95.438分钟
每日圈数: 15.088308
详细信息
固有亮度:
5
最大亮度:
2.5
卫星平台:
Starlink v1.5
覆盖范围:
全球
运营商:
太空探索技术公司
运营商所在国:
美国
制造商(研发单位):
太空探索技术公司
制造商所在国:
美国
使用方式:
暂无
卫星简介
星链(Starlink)计划是由太空探索技术公司(SpaceX)提出的一个巨型低轨卫星互联网星座项目,计划在2019年至2024年间在太空搭建由约1.2万颗卫星组成的“星链”网络,其中1584颗将部署在地球上空550千米处的近地轨道,并从2020年开始工作。该卫星仍在工作。
2D轨道图
3D轨道图
轨道高度分析图
轨道倾角分析图
轨道综合分析图
查看轨道综合分析图